This is the latest recevied weather packets stored in our database for station/object N0HEQ. If no packets are shown the sender has not sent any weather packets the latest 10 day(s).
| Time | Temp. | Humidity | Pressure | Rain* | Wind** | Luminosity | Snow |
|---|---|---|---|---|---|---|---|
| 1777813162 | 11.11° C | 35% | 1020.1 hPa | 0 mm | - | 47 W/m² | - |
| 1777812860 | 11.11° C | 35% | 1020.1 hPa | 0 mm | - | 43 W/m² | - |
| 1777812556 | 10.56° C | 36% | 1020 hPa | 0 mm | - | 38 W/m² | - |
| 1777812254 | 10.56° C | 36% | 1020 hPa | 0 mm | - | 34 W/m² | - |
| 1777811952 | 10.56° C | 36% | 1020.1 hPa | 0 mm | - | 29 W/m² | - |
| 1777811650 | 10° C | 37% | 1020.1 hPa | 0 mm | - | 24 W/m² | - |
| 1777811345 | 10° C | 37% | 1019.9 hPa | 0 mm | - | 20 W/m² | - |
| 1777811043 | 10° C | 37% | 1019.8 hPa | 0 mm | - | 17 W/m² | - |
| 1777810740 | 9.44° C | 38% | 1019.9 hPa | 0 mm | - | 13 W/m² | - |
| 1777810436 | 9.44° C | 38% | 1019.8 hPa | 0 mm | - | 10 W/m² | - |
| 1777810132 | 9.44° C | 38% | 1019.8 hPa | 0 mm | - | 6 W/m² | - |
| 1777809829 | 9.44° C | 38% | 1019.9 hPa | 0 mm | - | 4 W/m² | - |
| 1777809527 | 9.44° C | 37% | 1019.6 hPa | 0 mm | - | 2 W/m² | - |
| 1777809225 | 9.44° C | 37% | 1019.6 hPa | 0 mm | - | 1 W/m² | - |
| 1777808923 | 9.44° C | 37% | 1019.6 hPa | 0 mm | - | 0 W/m² | - |
| 1777808619 | 9.44° C | 38% | 1019.5 hPa | 0 mm | - | 0 W/m² | - |
| 1777808316 | 9.44° C | 38% | 1019.8 hPa | 0 mm | - | 0 W/m² | - |
| 1777808015 | 9.44° C | 37% | 1019.5 hPa | 0 mm | - | 0 W/m² | - |
| 1777807711 | 9.44° C | 37% | 1019.8 hPa | 0 mm | - | 0 W/m² | - |
| 1777807410 | 9.44° C | 36% | 1019.6 hPa | 0 mm | - | 0 W/m² | - |
| 1777807110 | 10° C | 36% | 1019.8 hPa | 0 mm | - | 0 W/m² | - |
| 1777806808 | 10° C | 37% | 1019.5 hPa | 0 mm | - | 0 W/m² | - |
| 1777806503 | 10° C | 36% | 1019.4 hPa | 0 mm | - | 0 W/m² | - |
| 1777806200 | 10° C | 35% | 1019.6 hPa | 0 mm | - | 0 W/m² | - |
| 1777805896 | 10° C | 35% | 1019.5 hPa | 0 mm | - | 0 W/m² | - |
* Rain latest hour (hover to see other rain measurements)
** Current wind speed in m/s (hover to see current wind gust speed)